[keps] orb10203.amsat
Ray Hoad
ray.hoad at mypbmail.com
Thu Jul 22 18:35:05 PDT 2010
SB KEPS @ AMSAT $ORB10203.O
Orbital Elements 10203.OSCAR
HR AMSAT ORBITAL ELEMENTS FOR OSCAR SATELLITES
FROM WA5QGD FORT WORTH,TX July 22, 2010
Send Subscribe/unsubscribe to KEPS at http://www.amsat.org/mailman/listinfo/keps
BID: ORB10203.O
TO ALL RADIO AMATEURS BT
Satellite: AO-07
Catalog number: 07530
Epoch time: 10202.83857158
Element set: 833
Inclination: 101.3998 deg
RA of node: 217.3598 deg
Eccentricity: 0.0011628
Arg of perigee: 205.6732 deg
Mean anomaly: 154.3763 deg
Mean motion: 12.53579015 rev/day
Decay rate: -2.7e-07 rev/day^2
Epoch rev: 63279
Checksum: 310
Satellite: FO-29
Catalog number: 24278
Epoch time: 10203.82357165
Element set: 359
Inclination: 098.5142 deg
RA of node: 028.0255 deg
Eccentricity: 0.0351254
Arg of perigee: 031.5259 deg
Mean anomaly: 330.6417 deg
Mean motion: 13.52951792 rev/day
Decay rate: 3.9e-07 rev/day^2
Epoch rev: 68792
Checksum: 313
Satellite: SO-33
Catalog number: 25509
Epoch time: 10202.50664022
Element set: 757
Inclination: 031.4352 deg
RA of node: 314.4468 deg
Eccentricity: 0.0354170
Arg of perigee: 230.0106 deg
Mean anomaly: 126.8853 deg
Mean motion: 14.28317219 rev/day
Decay rate: 7.3e-07 rev/day^2
Epoch rev: 61296
Checksum: 272
Satellite: RS-22
Catalog number: 27939
Epoch time: 10203.60973946
Element set: 385
Inclination: 097.8890 deg
RA of node: 067.5859 deg
Eccentricity: 0.0012716
Arg of perigee: 311.7365 deg
Mean anomaly: 048.2766 deg
Mean motion: 14.63435253 rev/day
Decay rate: 1.14e-06 rev/day^2
Epoch rev: 36413
Checksum: 326
Satellite: VO-52
Catalog number: 28650
Epoch time: 10202.91046188
Element set: 0559
Inclination: 097.6892 deg
RA of node: 254.9865 deg
Eccentricity: 0.0027356
Arg of perigee: 160.4070 deg
Mean anomaly: 199.8249 deg
Mean motion: 14.81775061 rev/day
Decay rate: 2.94e-06 rev/day^2
Epoch rev: 28183
Checksum: 339
Satellite: SO-67
Catalog number: 35870
Epoch time: 10203.71898626
Element set: 933
Inclination: 097.3292 deg
RA of node: 251.9109 deg
Eccentricity: 0.0002990
Arg of perigee: 007.7674 deg
Mean anomaly: 140.2814 deg
Mean motion: 15.20961812 rev/day
Decay rate: 4.99e-06 rev/day^2
Epoch rev: 4685
Checksum: 324
Satellite: HO-68
Catalog number: 36122
Epoch time: 10203.74393272
Element set: 509
Inclination: 100.4666 deg
RA of node: 263.8108 deg
Eccentricity: 0.0007128
Arg of perigee: 255.4030 deg
Mean anomaly: 104.6296 deg
Mean motion: 13.16281324 rev/day
Decay rate: -4.5e-07 rev/day^2
Epoch rev: 2889
Checksum: 280
/EX
SB KEPS @ AMSAT $ORB10203.D
Orbital Elements 10203.MICROS
HR AMSAT ORBITAL ELEMENTS FOR THE MICROSATS
FROM WA5QGD FORT WORTH,TX July 22, 2010
Send Subscribe/unsubscribe to KEPS at http://www.amsat.org/mailman/listinfo/keps
BID: ORB10203.D
TO ALL RADIO AMATEURS BT
Satellite: UO-11
Catalog number: 14781
Epoch time: 10202.84514274
Element set: 0295
Inclination: 098.0541 deg
RA of node: 254.6878 deg
Eccentricity: 0.0009951
Arg of perigee: 122.0698 deg
Mean anomaly: 238.1516 deg
Mean motion: 14.79817158 rev/day
Decay rate: 4.0e-07 rev/day^2
Epoch rev: 41693
Checksum: 313
Satellite: AO-16
Catalog number: 20439
Epoch time: 10202.49964081
Element set: 0952
Inclination: 098.3346 deg
RA of node: 159.0592 deg
Eccentricity: 0.0011937
Arg of perigee: 066.0726 deg
Mean anomaly: 294.1703 deg
Mean motion: 14.31867462 rev/day
Decay rate: 2.1e-07 rev/day^2
Epoch rev: 07029
Checksum: 299
Satellite: LO-19
Catalog number: 20442
Epoch time: 10202.77132708
Element set: 860
Inclination: 098.2959 deg
RA of node: 164.9822 deg
Eccentricity: 0.0012888
Arg of perigee: 060.5288 deg
Mean anomaly: 299.7181 deg
Mean motion: 14.32098472 rev/day
Decay rate: 9.7e-07 rev/day^2
Epoch rev: 7050
Checksum: 322
Satellite: AO-27
Catalog number: 22825
Epoch time: 10202.66527062
Element set: 0585
Inclination: 098.4860 deg
RA of node: 149.7268 deg
Eccentricity: 0.0008493
Arg of perigee: 161.7969 deg
Mean anomaly: 198.3503 deg
Mean motion: 14.29302114 rev/day
Decay rate: -5.9e-07 rev/day^2
Epoch rev: 87697
Checksum: 339
Satellite: IO-26
Catalog number: 22826
Epoch time: 10202.58457545
Element set: 0322
Inclination: 098.4809 deg
RA of node: 150.2365 deg
Eccentricity: 0.0009158
Arg of perigee: 157.3996 deg
Mean anomaly: 202.7593 deg
Mean motion: 14.29558908 rev/day
Decay rate: -2.0e-08 rev/day^2
Epoch rev: 87707
Checksum: 329
Satellite: GO-32
Catalog number: 25397
Epoch time: 10203.67542671
Element set: 240
Inclination: 098.3130 deg
RA of node: 209.1721 deg
Eccentricity: 0.0001833
Arg of perigee: 125.8997 deg
Mean anomaly: 234.2346 deg
Mean motion: 14.23181263 rev/day
Decay rate: -2.6e-07 rev/day^2
Epoch rev: 62509
Checksum: 280
Satellite: NO-44
Catalog number: 26931
Epoch time: 10202.76450987
Element set: 513
Inclination: 067.0510 deg
RA of node: 114.8892 deg
Eccentricity: 0.0005314
Arg of perigee: 264.7493 deg
Mean anomaly: 095.3009 deg
Mean motion: 14.29604150 rev/day
Decay rate: 8.2e-07 rev/day^2
Epoch rev: 45969
Checksum: 301
Satellite: SO-50
Catalog number: 27607
Epoch time: 10203.34717699
Element set: 225
Inclination: 064.5577 deg
RA of node: 249.7225 deg
Eccentricity: 0.0036320
Arg of perigee: 060.4941 deg
Mean anomaly: 299.9754 deg
Mean motion: 14.71555338 rev/day
Decay rate: -1.02e-06 rev/day^2
Epoch rev: 40755
Checksum: 313
Satellite: CO-55
Catalog number: 27844
Epoch time: 10203.59021581
Element set: 895
Inclination: 098.7091 deg
RA of node: 212.0556 deg
Eccentricity: 0.0010933
Arg of perigee: 069.8526 deg
Mean anomaly: 290.3824 deg
Mean motion: 14.20718512 rev/day
Decay rate: 1.5e-07 rev/day^2
Epoch rev: 36611
Checksum: 294
Satellite: CO-57
Catalog number: 27848
Epoch time: 10202.99105220
Element set: 844
Inclination: 098.7130 deg
RA of node: 210.5646 deg
Eccentricity: 0.0010814
Arg of perigee: 074.6803 deg
Mean anomaly: 285.5579 deg
Mean motion: 14.20510442 rev/day
Decay rate: 1.8e-07 rev/day^2
Epoch rev: 36598
Checksum: 299
Satellite: AO-51
Catalog number: 28375
Epoch time: 10203.01354987
Element set: 730
Inclination: 098.0636 deg
RA of node: 194.5284 deg
Eccentricity: 0.0084732
Arg of perigee: 352.3248 deg
Mean anomaly: 007.6637 deg
Mean motion: 14.40691384 rev/day
Decay rate: 7.0e-08 rev/day^2
Epoch rev: 31852
Checksum: 307
Satellite: GENESAT1
Catalog number: 29655
Epoch time: 10203.21549890
Element set: 189
Inclination: 040.0131 deg
RA of node: 157.8553 deg
Eccentricity: 0.0010723
Arg of perigee: 228.6365 deg
Mean anomaly: 131.3614 deg
Mean motion: 16.07761132 rev/day
Decay rate: 3.28761e-03 rev/day^2
Epoch rev: 20560
Checksum: 277
Satellite: CP3
Catalog number: 31129
Epoch time: 10203.76754000
Element set: 633
Inclination: 097.9371 deg
RA of node: 241.4311 deg
Eccentricity: 0.0103617
Arg of perigee: 122.7182 deg
Mean anomaly: 238.3961 deg
Mean motion: 14.52280267 rev/day
Decay rate: 1.11e-06 rev/day^2
Epoch rev: 17302
Checksum: 253
Satellite: CO-65
Catalog number: 32785
Epoch time: 10202.26850736
Element set: 0738
Inclination: 097.8940 deg
RA of node: 266.7215 deg
Eccentricity: 0.0015046
Arg of perigee: 169.6834 deg
Mean anomaly: 190.4720 deg
Mean motion: 14.81679630 rev/day
Decay rate: -1.44e-06 rev/day^2
Epoch rev: 12053
Checksum: 314
Satellite: KKS-1
Catalog number: 33493
Epoch time: 10203.72425857
Element set: 684
Inclination: 098.0893 deg
RA of node: 323.5267 deg
Eccentricity: 0.0020737
Arg of perigee: 029.6514 deg
Mean anomaly: 330.5876 deg
Mean motion: 14.81038758 rev/day
Decay rate: 3.47e-06 rev/day^2
Epoch rev: 8074
Checksum: 318
Satellite: SOHLA-1
Catalog number: 33496
Epoch time: 10203.29597022
Element set: 158
Inclination: 098.0601 deg
RA of node: 311.9206 deg
Eccentricity: 0.0007669
Arg of perigee: 090.4622 deg
Mean anomaly: 269.7468 deg
Mean motion: 14.69504228 rev/day
Decay rate: 9.0e-07 rev/day^2
Epoch rev: 8003
Checksum: 293
Satellite: TISAT-1
Catalog number: 36799
Epoch time: 10202.66634578
Element set: 0031
Inclination: 098.1454 deg
RA of node: 261.9473 deg
Eccentricity: 0.0014274
Arg of perigee: 264.4227 deg
Mean anomaly: 095.5353 deg
Mean motion: 14.80128876 rev/day
Decay rate: 7.05e-06 rev/day^2
Epoch rev: 00141
Checksum: 300
Satellite: STUDSAT
Catalog number: 36801
Epoch time: 10203.68308363
Element set: 35
Inclination: 098.1471 deg
RA of node: 262.9730 deg
Eccentricity: 0.0013690
Arg of perigee: 253.3431 deg
Mean anomaly: 106.6779 deg
Mean motion: 14.79746647 rev/day
Decay rate: 2.28e-06 rev/day^2
Epoch rev: 156
Checksum: 292
/EX
SB KEPS @ AMSAT $ORB10203.W
Orbital Elements 10203.WEATHER
HR AMSAT ORBITAL ELEMENTS FOR WEATHER SATELLITES
FROM WA5QGD FORT WORTH,TX July 22, 2010
Send Subscribe/unsubscribe to KEPS at http://www.amsat.org/mailman/listinfo/keps
BID: ORB10203.W
TO ALL RADIO AMATEURS BT
Satellite: NOAA-10
Catalog number: 16969
Epoch time: 10203.48154604
Element set: 141
Inclination: 098.6559 deg
RA of node: 232.1151 deg
Eccentricity: 0.0013112
Arg of perigee: 107.2984 deg
Mean anomaly: 252.9636 deg
Mean motion: 14.27421644 rev/day
Decay rate: -3.6e-07 rev/day^2
Epoch rev: 24061
Checksum: 274
Satellite: NOAA-11
Catalog number: 19531
Epoch time: 10203.31470061
Element set: 153
Inclination: 098.7693 deg
RA of node: 291.7424 deg
Eccentricity: 0.0012313
Arg of perigee: 050.1368 deg
Mean anomaly: 310.0895 deg
Mean motion: 14.14930159 rev/day
Decay rate: -1.22e-06 rev/day^2
Epoch rev: 12610
Checksum: 251
Satellite: NOAA-12
Catalog number: 21263
Epoch time: 10203.51305183
Element set: 641
Inclination: 098.7645 deg
RA of node: 216.6666 deg
Eccentricity: 0.0013402
Arg of perigee: 065.3136 deg
Mean anomaly: 294.9440 deg
Mean motion: 14.25644640 rev/day
Decay rate: 1.6e-07 rev/day^2
Epoch rev: 99743
Checksum: 284
Satellite: MET-3/5
Catalog number: 21655
Epoch time: 10202.82198794
Element set: 867
Inclination: 082.5578 deg
RA of node: 284.1669 deg
Eccentricity: 0.0012098
Arg of perigee: 261.8334 deg
Mean anomaly: 098.1450 deg
Mean motion: 13.17022003 rev/day
Decay rate: 5.1e-07 rev/day^2
Epoch rev: 91023
Checksum: 297
